Date String (YYYY-MM-DD hh:mm:ss) UTC,Instrument flags,Ambient pressure (hPa),Sample flow (lpm),Bypass flow (lpm),Sample temperature (°C),Ambient temperature (°C),ASC tube jacket temperature (°C),LED temperature (°C),Box temperature (°C),Sample RH (%),Span deviation,Mass concentration (μg/m³),Mass concentration (μg/m³),Mass concentration (μg/m³)
DateTimeUTC,F1_M11,P_M11,Q1_M11,Q2_M11,T1_M11,T2_M11,T3_M11,T4_M11,T5_M11,U1_M11,ZSPAN_M11,X2_M11,X0_M11,X1_M11
2022-12-19 02:00:00,,0819.7,5.02,0.00,22.4,20.9,00.0,31.3,24.2,06.4,0000.0,0006.94,0027.00,0005.07
2022-12-19 02:01:00,,0819.7,5.02,0.00,22.4,20.9,00.0,31.3,24.2,06.4,0000.0,0006.90,0027.65,0005.06
2022-12-19 02:02:00,,0819.7,4.98,0.00,22.4,20.9,00.0,31.3,24.2,06.3,0000.0,0006.87,0027.36,0005.06
2022-12-19 02:03:00,,0819.8,4.98,0.00,22.4,20.9,00.0,31.3,24.2,06.3,0000.0,0006.85,0027.06,0005.07
2022-12-19 02:04:00,,0819.8,5.01,0.00,22.3,20.9,00.0,31.3,24.2,06.3,0000.0,0006.84,0026.86,0005.09
2022-12-19 02:05:00,,0819.9,5.01,0.00,22.3,20.9,00.0,31.3,24.2,06.4,0000.0,0006.88,0027.47,0005.12
2022-12-19 02:06:00,,0819.8,4.96,0.00,22.3,20.9,00.0,31.3,24.2,06.4,0000.0,0006.88,0027.28,0005.14
2022-12-19 02:07:00,,0819.9,5.04,0.00,22.3,20.9,00.0,31.3,24.2,06.4,0000.0,0006.90,0025.89,0005.16
2022-12-19 02:08:00,,0819.9,5.02,0.00,22.3,20.9,00.0,31.3,24.2,06.4,0000.0,0006.85,0023.80,0005.16
2022-12-19 02:09:00,,0819.9,4.95,0.00,22.3,20.9,00.0,31.2,24.2,06.4,0000.0,0006.80,0023.65,0005.17
2022-12-19 02:10:00,,0820.0,5.02,0.00,22.3,20.9,00.0,31.2,24.1,06.4,0000.0,0006.82,0023.60,0005.18
2022-12-19 02:11:00,,0819.9,5.03,0.00,22.3,20.8,00.0,31.2,24.1,06.4,0000.0,0006.82,0022.87,0005.19
2022-12-19 02:12:00,,0820.0,4.97,0.00,22.3,20.8,00.0,31.2,24.1,06.4,0000.0,0006.84,0021.99,0005.20
2022-12-19 02:13:00,,0819.9,5.00,0.00,22.3,20.8,00.0,31.2,24.2,06.5,0000.0,0006.86,0021.14,0005.23
2022-12-19 02:14:00,,0819.9,5.03,0.00,22.3,20.8,00.0,31.2,24.2,06.5,0000.0,0006.90,0021.11,0005.24
2022-12-19 02:15:00,,0819.9,5.00,0.00,22.3,20.8,00.0,31.2,24.1,06.5,0000.0,0006.93,0021.35,0005.23
2022-12-19 02:16:00,,0819.9,4.97,0.00,22.3,20.8,00.0,31.2,24.1,06.4,0000.0,0006.86,0021.68,0005.21
2022-12-19 02:17:00,,0820.0,5.03,0.00,22.3,20.8,00.0,31.2,24.1,06.4,0000.0,0006.81,0020.66,0005.19
2022-12-19 02:18:00,,0819.9,4.99,0.00,22.3,20.8,00.0,31.2,24.1,06.4,0002.1,0006.82,0020.47,0005.17
2022-12-19 02:19:00,,0819.9,4.98,0.00,22.3,20.8,00.0,31.2,24.1,06.4,0002.3,0006.83,0021.25,0005.15
2022-12-19 02:20:00,,0819.9,5.03,0.00,22.3,20.7,00.0,31.2,24.1,06.4,0001.9,0006.86,0020.80,0005.13
2022-12-19 02:21:00,,0819.9,5.00,0.00,22.3,20.7,00.0,31.2,24.1,06.4,0002.4,0006.88,0020.64,0005.12
2022-12-19 02:22:00,,0819.9,4.95,0.00,22.3,20.7,00.0,31.2,24.1,06.5,0002.7,0006.93,0020.63,0005.10
2022-12-19 02:23:00,,0819.9,5.03,0.00,22.2,20.7,00.0,31.1,24.1,06.5,0002.9,0006.94,0021.60,0005.05
2022-12-19 02:24:00,,0819.9,5.02,0.00,22.2,20.7,00.0,31.1,24.1,06.5,0003.5,0006.90,0022.33,0005.00
2022-12-19 02:25:00,,0819.9,4.95,0.00,22.2,20.6,00.0,31.1,24.1,06.5,0003.8,0006.86,0022.46,0004.96
2022-12-19 02:26:00,,0819.9,5.02,0.00,22.2,20.6,00.0,31.1,24.0,06.5,0003.6,0006.88,0022.32,0004.94
2022-12-19 02:27:00,,0819.9,5.01,0.00,22.2,20.6,00.0,31.1,24.0,06.5,0003.2,0006.89,0022.16,0004.93
2022-12-19 02:28:00,,0819.9,4.97,0.00,22.2,20.6,00.0,31.1,24.0,06.5,0003.0,0006.99,0022.88,0004.93
2022-12-19 02:29:00,,0819.9,4.99,0.00,22.2,20.6,00.0,31.1,24.0,06.5,0002.9,0006.98,0023.62,0004.93
2022-12-19 02:30:00,,0819.9,5.03,0.00,22.2,20.5,00.0,31.1,24.0,06.5,0002.5,0006.99,0023.10,0004.93
2022-12-19 02:31:00,,0819.9,5.01,0.00,22.2,20.6,00.0,31.1,24.0,06.5,0002.4,0006.97,0022.99,0004.94
2022-12-19 02:32:00,,0819.9,4.95,0.00,22.2,20.6,00.0,31.1,24.0,06.5,0000.0,0006.93,0022.50,0004.93
2022-12-19 02:33:00,,0819.9,5.01,0.00,22.1,20.6,00.0,31.0,24.0,06.5,0000.0,0006.86,0022.33,0004.94
2022-12-19 02:34:00,,0819.9,5.02,0.00,22.1,20.6,00.0,31.0,23.9,06.5,0000.0,0006.82,0022.30,0004.95
2022-12-19 02:35:00,,0819.9,4.98,0.00,22.1,20.6,00.0,31.0,24.0,06.5,0000.0,0006.85,0021.50,0004.97
2022-12-19 02:36:00,,0820.0,4.98,0.00,22.2,21.1,00.0,31.0,24.1,06.5,0000.4,0006.87,0020.39,0005.00
2022-12-19 02:37:00,,0820.0,5.02,0.00,22.3,21.8,00.0,31.0,24.3,06.4,0000.9,0006.78,0019.65,0005.01
2022-12-19 02:38:00,,0820.0,4.96,0.00,22.3,22.0,00.0,31.0,24.3,06.4,0002.0,0006.71,0018.64,0005.02
2022-12-19 02:39:00,,0819.9,5.03,0.00,22.4,21.7,00.0,31.1,24.3,06.3,0002.7,0006.57,0017.65,0005.02
2022-12-19 02:40:00,,0819.9,5.02,0.00,22.4,21.5,00.0,31.1,24.3,06.3,0003.6,0006.50,0017.63,0005.03
2022-12-19 02:41:00,,0819.9,4.96,0.00,22.3,21.3,00.0,31.1,24.2,06.3,0004.1,0006.38,0017.35,0005.03
2022-12-19 02:42:00,,0819.9,5.03,0.00,22.3,21.2,00.0,31.1,24.2,06.2,0004.1,0006.28,0016.79,0005.02
2022-12-19 02:43:00,,0820.0,5.01,0.00,22.3,21.2,00.0,31.1,24.2,06.2,0003.8,0006.21,0017.53,0005.02
2022-12-19 02:44:00,,0820.1,4.95,0.00,22.3,21.1,00.0,31.1,24.2,06.2,0003.8,0006.18,0017.38,0005.02
2022-12-19 02:45:00,,0820.2,5.03,0.00,22.3,21.0,00.0,31.1,24.2,06.3,0004.3,0006.13,0016.71,0005.03
2022-12-19 02:46:00,,0820.2,5.01,0.00,22.3,21.0,00.0,31.1,24.1,06.3,0004.2,0006.03,0016.99,0005.02
2022-12-19 02:47:00,,0820.2,4.96,0.00,22.3,21.0,00.0,31.1,24.1,06.3,0004.2,0005.99,0017.01,0005.01
2022-12-19 02:48:00,,0820.2,5.03,0.00,22.3,21.0,00.0,31.1,24.1,06.4,0004.4,0006.01,0018.38,0005.00
2022-12-19 02:49:00,,0820.2,5.01,0.00,22.3,21.0,00.0,31.1,24.1,06.4,0004.2,0006.04,0018.80,0004.99
2022-12-19 02:50:00,,0820.2,4.95,0.00,22.3,20.9,00.0,31.1,24.1,06.4,0003.9,0006.04,0018.34,0004.99
2022-12-19 02:51:00,,0820.2,5.03,0.00,22.3,20.9,00.0,31.1,24.1,06.4,0003.8,0006.02,0017.05,0004.99
2022-12-19 02:52:00,,0820.2,5.03,0.00,22.3,20.9,00.0,31.1,24.1,06.4,0003.7,0006.02,0016.74,0005.00
2022-12-19 02:53:00,,0820.2,4.95,0.00,22.3,20.8,00.0,31.1,24.1,06.4,0003.4,0006.03,0016.52,0005.02
2022-12-19 02:54:00,,0820.2,5.02,0.00,22.3,20.7,00.0,31.1,24.0,06.4,0003.4,0006.06,0015.44,0005.04
2022-12-19 02:55:00,,0820.3,5.03,0.00,22.2,20.6,00.0,31.1,24.0,06.5,0003.8,0006.09,0014.92,0005.05
2022-12-19 02:56:00,,0820.4,4.99,0.00,22.2,20.6,00.0,31.1,24.0,06.5,0003.6,0006.12,0015.59,0005.06
2022-12-19 02:57:00,,0820.4,4.96,0.00,22.2,20.5,00.0,31.1,24.0,06.6,0002.8,0006.18,0015.12,0005.09
2022-12-19 02:58:00,,0820.3,5.02,0.00,22.2,20.5,00.0,31.1,24.0,06.6,0002.4,0006.23,0015.13,0005.13
2022-12-19 02:59:00,,0820.3,5.02,0.00,22.1,20.4,00.0,31.1,23.9,06.6,0001.3,0006.25,0014.45,0005.17
